Hinckley, MN

6:06 PM CST on December 15, 2019 (GMT -0600)
Hinckley

Weather History for K04W - October, 2019

Change the Weather History Date:

Wednesday, October 2, 2019

  Actual Average (WUND) Record (WUND)
Temperature  
Mean Temperature 47 °F -  
Max Temperature 50 °F - - (-1)
Min Temperature 44 °F - - (-1)
Degree Days  
Heating Degree Days 18    
Moisture  
Dew Point 43 °F    
Average Humidity 88    
Maximum Humidity 100    
Minimum Humidity 66    
Precipitation  
Precipitation 0.08 in - - ()
Sea Level Pressure  
Sea Level Pressure 30.11 in    
Wind  
Wind Speed 8 mph (NE)    
Max Wind Speed 16 mph    
Max Gust Speed 22 mph    
Visibility 9 miles    
Events Rain    
Averages and records for this station are not official NWS values.
T = Trace of Precipitation, MM = Missing Value Source: NWS Daily Summary

Daily Weather History Graph

Daily Weather History Graph

Search for Another Location

Airport or City:

Astronomy

Oct. 02, 2019 Rise Set
Actual Time 7:11 AM CDT 6:50 PM CDT
Civil Twilight 6:41 AM CDT 7:19 PM CDT
Nautical Twilight 6:06 AM CDT 7:54 PM CDT
Astronomical Twilight 5:31 AM CDT 8:29 PM CDT
Moon 11:50 AM CDT (10/2) 9:30 PM CDT (10/2)
Length of Visible Light 12h 38m
Length of Day
11h 39m
Waxing Crescent, 20% of the Moon is Illuminated
Oct 2
Waxing Crescent
Oct 5
First Quarter
Oct 13
Full
Oct 21
Last Quarter
Oct 27
New

Hourly Weather History & Observations

Time (CDT) Temp. Windchill Dew Point Humidity Pressure Visibility Wind Dir Wind Speed Gust Speed Precip Events Conditions
12:15 AM 46.4 °F 41.9 °F 41.0 °F 81% 30.09 in 10.0 mi North 9.2 mph - N/A   Overcast
12:16 AM 46.4 °F 41.9 °F 41.0 °F 81% 30.09 in 10.0 mi NNE 9.2 mph - N/A   Overcast
12:35 AM 46.4 °F 43.5 °F 41.0 °F 81% 30.09 in 10.0 mi North 5.8 mph - N/A   Overcast
12:36 AM 46.4 °F 43.5 °F 41.0 °F 81% 30.09 in 10.0 mi North 5.8 mph - N/A   Overcast
12:58 AM 46.4 °F 41.9 °F 41.0 °F 81% 30.09 in 10.0 mi North 9.2 mph - N/A   Overcast
1:16 AM 44.6 °F 41.4 °F 41.0 °F 87% 30.09 in 10.0 mi North 5.8 mph - N/A   Mostly Cloudy
1:35 AM 44.6 °F 40.7 °F 41.0 °F 87% 30.09 in 10.0 mi North 6.9 mph - N/A   Mostly Cloudy
1:36 AM 44.6 °F 40.7 °F 41.0 °F 87% 30.09 in 10.0 mi North 6.9 mph - N/A   Mostly Cloudy
1:55 AM 44.6 °F 40.7 °F 41.0 °F 87% 30.10 in 10.0 mi North 6.9 mph - N/A   Overcast
1:56 AM 44.6 °F 40.2 °F 41.0 °F 87% 30.11 in 10.0 mi North 8.1 mph - N/A   Overcast
2:17 AM 46.4 °F 41.9 °F 41.0 °F 81% 30.11 in 10.0 mi North 9.2 mph - N/A   Overcast
2:35 AM 46.4 °F 42.4 °F 41.0 °F 81% 30.11 in 10.0 mi North 8.1 mph - N/A   Overcast
2:55 AM 44.6 °F 40.7 °F 41.0 °F 87% 30.11 in 10.0 mi North 6.9 mph - N/A   Overcast
2:56 AM 44.6 °F 40.2 °F 41.0 °F 87% 30.11 in 10.0 mi North 8.1 mph - N/A   Overcast
3:15 AM 44.6 °F 39.7 °F 41.0 °F 87% 30.11 in 10.0 mi North 9.2 mph - N/A   Overcast
3:16 AM 44.6 °F 40.2 °F 41.0 °F 87% 30.11 in 10.0 mi North 8.1 mph - N/A   Overcast
3:39 AM 46.4 °F 41.9 °F 41.0 °F 81% 30.11 in 10.0 mi North 9.2 mph - N/A   Overcast
3:56 AM 46.4 °F 42.4 °F 42.8 °F 87% 30.12 in 10.0 mi North 8.1 mph - N/A   Overcast
4:16 AM 46.4 °F 41.9 °F 42.8 °F 87% 30.11 in 10.0 mi NNE 9.2 mph - N/A   Overcast
4:35 AM 46.4 °F 41.5 °F 42.8 °F 87% 30.11 in 10.0 mi NNE 10.4 mph 16.1 mph N/A   Overcast
4:55 AM 46.4 °F 41.5 °F 42.8 °F 87% 30.12 in 10.0 mi NNE 10.4 mph - N/A   Overcast
4:59 AM 46.4 °F 41.5 °F 42.8 °F 87% 30.12 in 10.0 mi NNE 10.4 mph - N/A   Overcast
5:16 AM 46.4 °F 41.5 °F 42.8 °F 87% 30.11 in 10.0 mi NNE 10.4 mph 16.1 mph N/A   Overcast
5:36 AM 46.4 °F 42.4 °F 42.8 °F 87% 30.11 in 10.0 mi NNE 8.1 mph - N/A   Overcast
5:55 AM 46.4 °F 41.9 °F 42.8 °F 87% 30.11 in 10.0 mi NNE 9.2 mph - N/A   Overcast
5:56 AM 46.4 °F 41.5 °F 42.8 °F 87% 30.11 in 10.0 mi NNE 10.4 mph - N/A   Overcast
6:15 AM 46.4 °F 41.5 °F 42.8 °F 87% 30.12 in 10.0 mi NNE 10.4 mph - N/A   Overcast
6:37 AM 46.4 °F 42.4 °F 42.8 °F 87% 30.12 in 10.0 mi North 8.1 mph - N/A   Overcast
6:55 AM 46.4 °F 41.9 °F 42.8 °F 87% 30.13 in 10.0 mi North 9.2 mph - N/A   Overcast
7:16 AM 46.4 °F 42.4 °F 42.8 °F 87% 30.14 in 10.0 mi North 8.1 mph - N/A   Overcast
7:35 AM 46.4 °F 42.9 °F 42.8 °F 87% 30.15 in 10.0 mi North 6.9 mph - N/A   Overcast
7:36 AM 46.4 °F 42.9 °F 42.8 °F 87% 30.15 in 10.0 mi North 6.9 mph - N/A   Overcast
7:59 AM 46.4 °F 42.9 °F 42.8 °F 87% 30.16 in 10.0 mi NNE 6.9 mph - N/A   Overcast
8:17 AM 46.4 °F 41.9 °F 42.8 °F 87% 30.16 in 10.0 mi NNE 9.2 mph - N/A   Overcast
8:36 AM 46.4 °F 41.9 °F 42.8 °F 87% 30.14 in 10.0 mi NE 9.2 mph - N/A   Overcast
8:55 AM 46.4 °F 41.5 °F 41.0 °F 81% 30.15 in 10.0 mi NE 10.4 mph 18.4 mph N/A   Overcast
9:15 AM 46.4 °F 42.4 °F 41.0 °F 81% 30.15 in 10.0 mi ENE 8.1 mph 18.4 mph N/A   Overcast
9:19 AM 46.4 °F 41.1 °F 41.0 °F 81% 30.15 in 10.0 mi NNE 11.5 mph 18.4 mph N/A   Overcast
9:37 AM 46.4 °F 42.4 °F 41.0 °F 81% 30.15 in 10.0 mi ENE 8.1 mph 18.4 mph N/A   Overcast
9:56 AM 46.4 °F 42.4 °F 41.0 °F 81% 30.15 in 10.0 mi NE 8.1 mph 17.3 mph N/A   Overcast
10:15 AM 46.4 °F 41.1 °F 39.2 °F 76% 30.15 in 10.0 mi NE 11.5 mph 20.7 mph N/A   Overcast
10:16 AM 46.4 °F 41.5 °F 39.2 °F 76% 30.14 in 10.0 mi NE 10.4 mph 20.7 mph N/A   Overcast
10:35 AM 46.4 °F 39.8 °F 39.2 °F 76% 30.14 in 10.0 mi ENE 16.1 mph 20.7 mph N/A   Overcast
10:59 AM 48.2 °F - 39.2 °F 71% 30.15 in 10.0 mi ENE 11.5 mph 17.3 mph N/A   Overcast
11:17 AM 50.0 °F - 39.2 °F 66% 30.14 in 10.0 mi ENE 11.5 mph 17.3 mph N/A   Overcast
11:36 AM 50.0 °F - 41.0 °F 71% 30.15 in 10.0 mi NE 8.1 mph - N/A   Overcast
11:55 AM 50.0 °F - 41.0 °F 71% 30.15 in 10.0 mi NE 8.1 mph - N/A   Overcast
11:56 AM 50.0 °F - 41.0 °F 71% 30.15 in 10.0 mi NE 6.9 mph 10.4 mph N/A   Overcast
12:15 PM 50.0 °F - 41.0 °F 71% 30.15 in 10.0 mi ENE 6.9 mph - N/A   Overcast
12:19 PM 50.0 °F - 41.0 °F 71% 30.15 in 10.0 mi ENE 8.1 mph - N/A   Overcast
12:37 PM 50.0 °F - 41.0 °F 71% 30.13 in 10.0 mi ENE 9.2 mph 16.1 mph N/A   Overcast
12:56 PM 50.0 °F - 41.0 °F 71% 30.13 in 10.0 mi NE 5.8 mph 17.3 mph N/A   Overcast
1:15 PM 50.0 °F - 41.0 °F 71% 30.13 in 10.0 mi ENE 11.5 mph 16.1 mph N/A   Overcast
1:16 PM 50.0 °F - 41.0 °F 71% 30.13 in 10.0 mi ENE 9.2 mph 16.1 mph N/A   Overcast
1:35 PM 48.2 °F - 42.8 °F 82% 30.15 in 10.0 mi NNE 8.1 mph - N/A Rain Light Rain
1:39 PM 46.4 °F 45.2 °F 42.8 °F 87% 30.16 in 10.0 mi North 3.5 mph - N/A Rain Rain
1:57 PM 46.4 °F 42.9 °F 44.6 °F 93% 30.15 in 7.0 mi NNE 6.9 mph - 0.02 in Rain Rain
2:16 PM 46.4 °F 42.4 °F 44.6 °F 93% 30.14 in 10.0 mi NNE 8.1 mph - N/A Rain Light Rain
2:35 PM 46.4 °F 42.4 °F 44.6 °F 93% 30.13 in 10.0 mi NNE 8.1 mph - N/A Rain Rain
2:36 PM 46.4 °F 42.4 °F 44.6 °F 93% 30.13 in 10.0 mi NNE 8.1 mph - N/A Rain Rain
2:55 PM 46.4 °F 42.9 °F 44.6 °F 93% 30.11 in 10.0 mi NE 6.9 mph - 0.01 in Rain Light Rain
2:56 PM 46.4 °F 42.9 °F 44.6 °F 93% 30.11 in 10.0 mi NE 6.9 mph - 0.01 in Rain Light Rain
3:18 PM 46.4 °F 42.4 °F 44.6 °F 93% 30.11 in 10.0 mi NE 8.1 mph - N/A Rain Light Rain
3:37 PM 46.4 °F 43.5 °F 44.6 °F 93% 30.11 in 10.0 mi NE 5.8 mph - 0.01 in Rain Light Rain
3:56 PM 46.4 °F 42.4 °F 44.6 °F 93% 30.11 in 10.0 mi ENE 8.1 mph - 0.01 in   Drizzle
4:15 PM 46.4 °F 41.5 °F 44.6 °F 93% 30.09 in 10.0 mi ENE 10.4 mph - N/A   Light Drizzle
4:16 PM 46.4 °F 41.5 °F 44.6 °F 93% 30.08 in 10.0 mi ENE 10.4 mph - N/A   Light Drizzle
4:35 PM 46.4 °F 41.9 °F 44.6 °F 93% 30.08 in 10.0 mi ENE 9.2 mph - N/A   Light Drizzle
4:39 PM 44.6 °F 40.2 °F 44.6 °F 100% 30.07 in 10.0 mi ENE 8.1 mph - N/A Rain Light Rain
5:16 PM 44.6 °F 39.7 °F 44.6 °F 100% 30.07 in 10.0 mi ENE 9.2 mph - N/A   Overcast
5:35 PM 44.6 °F 38.4 °F 44.6 °F 100% 30.06 in 10.0 mi ENE 12.7 mph 17.3 mph N/A   Overcast
5:36 PM 44.6 °F 39.2 °F 44.6 °F 100% 30.06 in 10.0 mi ENE 10.4 mph 17.3 mph N/A   Overcast
5:55 PM 44.6 °F 40.2 °F 42.8 °F 93% 30.07 in 10.0 mi ENE 8.1 mph - N/A   Light Drizzle
6:00 PM 44.6 °F 38.4 °F 42.8 °F 93% 30.07 in 10.0 mi ENE 12.7 mph 19.6 mph N/A   Light Drizzle
6:17 PM 44.6 °F 39.2 °F 42.8 °F 93% 30.07 in 10.0 mi ENE 10.4 mph 21.9 mph N/A   Light Drizzle
6:35 PM 44.6 °F 40.2 °F 42.8 °F 93% 30.09 in 10.0 mi ENE 8.1 mph - N/A   Overcast
6:55 PM 44.6 °F 40.7 °F 42.8 °F 93% 30.07 in 10.0 mi ENE 6.9 mph - N/A   Overcast
6:56 PM 44.6 °F 41.4 °F 42.8 °F 93% 30.07 in 10.0 mi ENE 5.8 mph - N/A   Overcast
7:15 PM 44.6 °F 41.4 °F 42.8 °F 93% 30.08 in 5.0 mi ENE 5.8 mph - N/A   Light Drizzle
7:16 PM 44.6 °F 40.7 °F 42.8 °F 93% 30.08 in 5.0 mi ENE 6.9 mph - N/A   Light Drizzle
7:38 PM 44.6 °F 40.7 °F 42.8 °F 93% 30.08 in 7.0 mi ENE 6.9 mph - N/A   Drizzle
7:57 PM 44.6 °F 40.7 °F 44.6 °F 100% 30.06 in 5.0 mi NE 6.9 mph - N/A Rain Rain
8:16 PM 44.6 °F 39.7 °F 44.6 °F 100% 30.05 in 5.0 mi ENE 9.2 mph 16.1 mph N/A   Light Drizzle
8:35 PM 44.6 °F 41.4 °F 44.6 °F 100% 30.06 in 10.0 mi ENE 5.8 mph - N/A   Overcast
8:36 PM 44.6 °F 41.4 °F 44.6 °F 100% 30.06 in 10.0 mi ENE 5.8 mph - N/A   Overcast
8:55 PM 44.6 °F 40.2 °F 44.6 °F 100% 30.06 in 10.0 mi ENE 8.1 mph - N/A   Overcast
9:17 PM 44.6 °F 41.4 °F 44.6 °F 100% 30.05 in 7.0 mi ENE 5.8 mph - N/A   Light Drizzle
9:36 PM 44.6 °F 42.2 °F 44.6 °F 100% 30.04 in 5.0 mi ENE 4.6 mph - N/A   Light Drizzle
9:55 PM 44.6 °F 42.2 °F 44.6 °F 100% 30.05 in 4.0 mi NE 4.6 mph - 0.01 in   Light Drizzle
9:56 PM 44.6 °F 43.1 °F 44.6 °F 100% 30.05 in 4.0 mi NE 3.5 mph - 0.01 in   Light Drizzle
10:15 PM 44.6 °F 43.1 °F 44.6 °F 100% 30.07 in 3.0 mi NNE 3.5 mph - N/A   Drizzle
10:38 PM 44.6 °F 42.2 °F 44.6 °F 100% 30.06 in 4.0 mi NNE 4.6 mph - 0.03 in Rain Rain
10:56 PM 44.6 °F 42.2 °F 44.6 °F 100% 30.06 in 5.0 mi NNE 4.6 mph - 0.03 in   Drizzle
11:35 PM 44.6 °F 42.2 °F 44.6 °F 100% 30.04 in 7.0 mi NE 4.6 mph - N/A   Light Drizzle
11:36 PM 44.6 °F 41.4 °F 44.6 °F 100% 30.04 in 7.0 mi NNE 5.8 mph - N/A   Light Drizzle
11:55 PM 44.6 °F 40.2 °F 44.6 °F 100% 30.03 in 5.0 mi NE 8.1 mph - N/A   Light Drizzle